www.pogodaiklimat.ru

Погода и климат >> Архив погоды >> Россия >> город Москва >> Москва


АРХИВ ПОГОДЫ в Москве

Время (UTC), дата Ветер
(напр.,м/с)
 
Видим.   Явления Облачность Т
(С)
Тd
(С)
f
(%)
Тe
(С)
Тes
(С)
Комфортность P
(гПа)
Po
(гПа)
Тmin
(С)
Tmax
(С)
R
(мм)
R24
(мм)
S
(см)
21 15.09 З 1
{10}
н/о 9/9 600 м
[Sc]
+12.5 +7.7 73 +13 +13 тепло 1008.3 989.5
00 16.09 З 1 н/о 9/9 600 м
[Sc]
+11.8 +7.9 77 +12 +12 тепло 1010.5 991.7
03 16.09 З 1 10 км 10/10 600 м
[Sc]
+12.0 +8.0 76 +12 +12 тепло 1012.5 993.6 +11.3 0.1
06 16.09 ЮЗ 1 10 км 8/6 600 м
[Sc Ci]
+14.0 +8.8 71 +14 +16 тепло 1015.0 996.2 +11.3
09 16.09 З 1 10 км 9/9 600 м
[Cu Sc]
+14.8 +9.1 69 +15 +16 тепло 1016.6 997.9
12 16.09 З 1 10 км 8/8 600 м
[Cu Sc]
+16.2 +8.0 58 +17 +18 тепло 1018.2 999.5
15 16.09 штиль 0 10 км 3/3 600 м
[Sc Ci fib]
+14.7 +7.7 63 +15 +15 тепло 1018.8 1000.0
18 16.09 штиль 0 н/о 3/0
[Ac trans]
+11.5 +8.0 79 +11 +11 по сезону 1020.4 1001.4 +16.5
21 16.09 штиль 0 н/о 8/8 1000 м
[Sc]
+11.5 +8.0 79 +11 +11 по сезону 1021.1 1002.1
00 17.09 штиль 0 н/о дымка ясно +9.9 +8.7 92 +9 +9 по сезону 1022.3 1003.1
03 17.09 штиль 0 4000 м дымка 9/0
[Ac trans]
+8.2 +7.4 95 +7 +7 по сезону 1022.6 1003.3 +8.1
06 17.09 штиль 0 10 км дымка 9/3 1000 м
[Sc Ac trans]
+13.4 +9.6 78 +13 +14 тепло 1023.0 1004.0 +8.1
09 17.09 ЮВ 1 10 км 9/6 1500 м
[Sc Ac trans]
+17.4 +9.0 58 +18 +20 тепло 1022.3 1003.6
12 17.09 штиль 0 4000 м слабый дождь 10/5 600 м
[Sc As op]
+16.1 +10.3 68 +16 +17 тепло 1021.5 1002.8
15 17.09 штиль 0 2000 м дождь 10/4 300 м
[Frnb As op]
+13.0 +12.0 94 +12 +12 по сезону 1020.7 1001.7 2
18 17.09 ЮВ 1 н/о дымка {дождь} 9/9 1000 м
[Sc]
+12.5 +11.2 92 +12 +12 по сезону 1019.1 1000.1 +18.0 3
21 17.09 ЮВ 1 н/о дымка 8/0
[Ac trans]
+12.4 +11.1 92 +12 +12 тепло 1016.5 997.6
00 18.09 штиль 0 н/о дымка 9/9 1000 м
[Sc]
+12.6 +11.3 92 +12 +12 тепло 1014.8 995.9
03 18.09 штиль 0 4000 м дымка 10/0
[Ac lent Ci fib]
+11.1 +10.4 95 +10 +10 по сезону 1013.4 994.5 +11.1 1
06 18.09 ЮВ 1 10 км дымка 10/0
[Ac trans Cs]
+13.8 +11.3 85 +14 +16 тепло 1010.7 991.9 +10.8
09 18.09 ЮВ 1 10 км 8/0
[Ac trans Cc]
+18.5 +12.6 68 +20 +25 тепло 1007.7 989.3
12 18.09 Ю 1 10 км 8/4 600 м
[Sc Ac trans]
+22.9 +14.3 58 +26 +28 жарко 1004.5 986.5
15 18.09 Ю 2 10 км 5/0
[Ac trans Cc]
+23.5 +13.6 54 +26 +26 жарко 1003.1 985.1
18 18.09 Ю 1 н/о 4/0
[Ac trans]
+19.5 +11.4 59 +22 +22 комфорт 1003.8 985.6 +24.3
21 18.09 Ю 1 н/о ясно +16.1 +8.3 60 +17 +17 тепло 1005.3 986.8
00 19.09 ЮВ 1 н/о ясно +14.2 +5.9 57 +15 +15 тепло 1004.3 985.7
03 19.09 Ю 2 10 км 4/0
[Ac trans]
+12.8 +5.8 62 +12 +12 тепло 1004.1 985.4 +12.8
06 19.09 ЮЗ 2 10 км 10/10 600 м
[Sc]
+13.5 +6.4 62 +13 +13 тепло 1005.7 987.1 +12.6
09 19.09 ЮЗ 1 10 км 10/10 600 м
[Sc]
+13.3 +7.2 67 +14 +14 тепло 1009.1 990.3
12 19.09 З 2 10 км 10/10 600 м
[Sc]
+13.1 +7.2 67 +12 +12 по сезону 1012.8 993.9
15 19.09 З 1 10 км 9/6 600 м
[Sc Ci fib]
+12.3 +5.8 64 +12 +12 по сезону 1016.0 997.1
18 19.09 З 1 н/о 8/8 600 м
[Sc]
+11.3 +6.4 72 +11 +11 по сезону 1017.9 998.8 +13.5
21 19.09 штиль 0 н/о ясно +10.3 +6.6 78 +10 +10 по сезону 1019.3 1000.2
00 20.09 штиль 0 н/о дымка ясно +8.0 +6.7 91 +7 +7 по сезону 1021.1 1001.8
03 20.09 штиль 0 4000 м дымка 6/0
[Ci fib]
+7.7 +6.7 93 +7 +7 по сезону 1022.1 1002.7 +7.6
06 20.09 З 1 10 км дымка 4/0
[Ci fib]
+11.6 +7.9 78 +12 +14 тепло 1023.7 1004.6 +7.2
09 20.09 штиль 0 10 км 9/0
[Cs]
+16.3 +6.8 53 +16 +24 тепло 1023.9 1005.1
12 20.09 Ю 1 10 км 9/0
[Cs]
+17.2 +6.2 48 +18 +22 тепло 1024.1 1005.3
15 20.09 штиль 0 10 км 9/0
[Ac trans Ci fib]
+13.7 +8.9 73 +13 +13 тепло 1024.6 1005.6
18 20.09 штиль 0 н/о дымка 6/0
[Ci fib]
+9.7 +8.3 91 +9 +9 по сезону 1025.4 1006.1 +18.1
21 20.09 штиль 0 н/о дымка 4/0
[Ci fib]
+8.3 +7.5 95 +7 +7 по сезону 1026.4 1007.0
00 21.09 штиль 0 н/о дымка 3/0
[Ci fib]
+7.8 +7.1 95 +7 +7 по сезону 1027.3 1007.8
03 21.09 СВ 1 4000 м дымка 10/3 1000 м
[Sc Ac und]
+9.4 +7.9 90 +9 +9 по сезону 1027.9 1008.5 +7.7
06 21.09 В 1 4000 м в посл. час дождь 10/6 1000 м
[Sc Ac As]
+10.7 +8.3 85 +10 +11 по сезону 1028.1 1008.8 +7.7 0.1
09 21.09 В 1 10 км {дождь} 10/10 1500 м
[Sc]
+12.7 +9.4 80 +13 +13 по сезону 1028.2 1009.0
12 21.09 В 2 10 км {дождь} 10/10 1500 м
[Sc]
+15.3 +8.4 63 +15 +15 по сезону 1028.5 1009.5
15 21.09 В 2 10 км 6/0
[Ci fib]
+13.6 +8.0 69 +13 +13 по сезону 1028.6 1009.5 0.1
18 21.09 В 1 н/о ясно +11.2 +7.5 78 +11 +11 по сезону 1030.1 1010.8 +15.9 0.0
21 21.09 В 1 н/о ясно +10.8 +7.4 80 +11 +11 по сезону 1031.2 1011.9
00 22.09 В 1 н/о ясно +8.7 +6.4 85 +8 +8 по сезону 1032.3 1012.8
03 22.09 В 1 н/о дымка 8/8 300 м
[Frnb]
+7.7 +5.9 88 +7 +7 по сезону 1033.1 1013.5 +7.6
06 22.09 ЮВ 3 10 км 9/6 300 м
[Cu Sc Ac trans]
+9.0 +5.4 78 +7 +7 по сезону 1033.8 1014.3 +7.6
09 22.09 В 2 10 км 5/0
[Ci fib]
+12.5 +4.4 58 +12 +18 по сезону 1033.4 1014.1
12 22.09 В 2 10 км ясно +14.6 +2.3 43 +15 +18 по сезону 1033.0 1013.9
15 22.09 В 2 10 км ясно +12.7 +4.6 58 +12 +12 по сезону 1032.7 1013.5

 

Местоположение метеостанции Москва (город Москва, Россия): широта 55.83 долгота 37.62 высота над уровнем моря 156 м.

В архиве по умолчанию представлена погода в Москве за последнюю неделю. Архивные данные за месяц целиком и за предыдущие месяцы, начиная с января 2011 года, Вы можете получить, выбрав интересующий диапазон дат из раскрывающегося списка и нажав кнопку "Ввод!".

Внимание! Время в таблицах - всемирное. Для получения местного времени необходимо прибавить поправку, которая в Москве равна 3 ч.

Смотрите также архив погоды в соседних городах и на ближайших метеорологических станциях:

Погода в Москве (Балчуг) (город Москва, Россия) (9 км)
Погода в Москве (Тушино) (город Москва, Россия) (12 км)
Погода в Москве (Строгино) (город Москва, Россия) (14 км)
Погода в Шереметьево (Московская область, Россия) (20 км)
Погода в Немчиновке (город Москва, Россия) (21 км)
Погода в Подмосковной (Московская область, Россия) (29 км)
Погода в Внуково (Московская область, Россия) (33 км)
Погода в Михайловском (Московская область, Россия) (49 км)
Погода в Ново-Йерусалиме (Московская область, Россия) (51 км)
Погода в Домодедово (Московская область, Россия) (51 км)

Пояснения к столбцам:

Ветер - указаны скорость ветра в м/с - средняя за 10 мин, порывы в срок и между сроками (в фигурных скобках) и направление, откуда дует ветер: С - северный, СВ - северо-восточный, В - восточный, ЮВ - юго-восточный, Ю - южный, ЮЗ - юго-западный, З - западный, СЗ - северо-западный.
Видимость - горизонтальная дальность видимости в метрах или километрах. При видимости от 1 до 10 км при отсутствии осадков обычно наблюдается дымка, при ухудшении видимости до 1 км и менее - туман. В сухую погоду видимость может ухудшаться дымом, пылью или мглою.
Явления - указаны атмосферные явления, наблюдавшиеся в срок или в последний час перед сроком; фигурными скобками обозначены явления, наблюдавшиеся между сроками (за 1-3 часа до срока); квадратными скобками обозначены град или гололедные отложения с указанием их диаметра в мм.
Облачность - указаны через наклонную черту общая и нижняя облачность в баллах и высота нижней границы облаков в метрах; квадратными скобками обозначены формы облаков: Ci - перистые, Cs - перисто-слоистые, Cc - перисто-кучевые, Ac - высококучевые, As - высокослоистые, Sc - слоисто-кучевые, Ns - слоисто-дождевые, Cu - кучевые, Cb - кучево-дождевые. Подробнее классификацию облаков см. в Атласе облаков (PDF).
T - Температура воздуха - температура, измеренная на высоте 2 м над землей.
Td - Температура точки росы - температура, при понижении до которой содержащийся в воздухе водяной пар достигнет насыщения.
f - Относительная влажность воздуха - влажноcть воздуха, измеренная на высоте 2 м над землей.
Te - Эффективная температура - температура, которую ощущает одетый по сезону человек в тени. Характеристика душности погоды. При расчете учитывается влияние влажности воздуха и скорости ветра на теплоощущения человека.
Tes - Эффективная температура на солнце - температура, которую ощущает человек, с поправкой на солнечный нагрев. Характеристика знойности погоды. Зависит от высоты солнца над горизонтом, облачности и скорости ветра. Ночью, в пасмурную погоду, а также при ветре 12 м/с и более поправка равна нулю.
P - Атмосферное давление - приведенное к уровню моря атмосферное давление.
Po - Атмосферное давление - измеренное на уровне метеостанции атмосферное давление.
Tmin - Минимальная температура - минимум температуры воздуха на высоте 2 м над землей.
Tmax - Максимальная температура - максимум температуры воздуха на высоте 2 м над землей.
R - Количество осадков - Количество выпавших осадков за период времени, мм. При наведении курсора мыши на число - период времени, за который выпало указанное количество осадков.
R24 - Количество осадков - Количество выпавших осадков за 24 часа, мм.
S - Снежный покров - Высота снежного покрова, см. При наведении курсора мыши на число - состояние снежного покрова и степень покрытия местности в баллах.